Location: Faicchio
(41.2833°N, 14.4833°E)
Time: 06:30:47
(UTC+00:00)

Cosmos 292 Rocket - Pass Details

Date: 15 June 2025
Orbit: 664 x 683 km, 74.0° (Epoch: 16 July)

Event Time Altitude Azimuth Distance (km) Brightness Sun altitude
Exits shadow 00:51:59 33° 155° (SSE) 1,136 4.6 -20.6°
Maximum altitude 00:53:39 48° 104° (ESE) 896 4.4 -20.5°
Drops below altitude 10° 00:58:15 10° 31° (NNE) 2,133 7.5 -20.1°
Sets 01:00:37 0° 26° (NNE) 3,053 8.8 -19.8°
